Location: Brodeslavy
(49.9527°N, 13.5567°E)
Time: 15:28:07
(UTC+00:00)

Meteor 2-16 Rocket - Pass Details

Date: 17 June 2025
Orbit: 942 x 955 km, 82.6° (Epoch: 19 July)

Event Time Altitude Azimuth Distance (km) Brightness Sun altitude
Exits shadow 21:19:23 10° 192° (SSW) 2,665 6.3 -12.9°
Reaches altitude 10° 21:19:25 10° 192° (SSW) 2,654 6.3 -12.9°
Maximum altitude 21:25:30 83° 280° (W) 958 4.5 -13.3°
Drops below altitude 10° 21:31:38 10° 9° (N) 2,677 7.7 -13.7°
Sets 21:34:09 0° 10° (N) 3,628 8.5 -13.8°
